DW0000 Weather Reports


Display with metric or nautical units.
time (UTC)temp
F
wind
direction
speed
MPH
gust
MPH
rain 1hr
in
rain 24hr
in
rain mn
in
humidity
%
barometer
mb
20260503203505 53 154 2.0 3.0 0.00 0.00 0.00 87 1034.1
20260503203007 53 168 0.0 2.0 0.00 0.00 0.00 88 1034.0
20260503201506 53 103 2.0 3.0 0.00 0.00 0.00 88 1034.0
20260503201005 53 106 2.0 3.0 0.00 0.00 0.00 88 1033.9
20260503195506 52 29 0.0 2.0 0.00 0.00 0.00 88 1033.7
20260503195006 52 168 2.0 3.0 0.00 0.00 0.00 89 1033.6
20260503193005 52 74 2.0 5.0 0.00 0.00 0.00 89 1033.6
20260503192505 52 193 3.0 5.0 0.00 0.00 0.00 89 1033.4
20260503190007 52 137 3.0 5.0 0.00 0.00 0.00 89 1033.4
20260503184006 52 142 4.0 7.0 0.00 0.00 0.00 89 1033.2
20260503183504 52 147 4.0 7.0 0.00 0.00 0.00 88 1033.2
20260503181005 52 116 2.0 5.0 0.00 0.00 0.00 87 1032.9
20260503180507 52 38 3.0 5.0 0.00 0.00 0.00 87 1032.8
20260503180005 52 7 2.0 3.0 0.00 0.00 0.00 87 1032.8
20260503174506 52 16 2.0 3.0 0.00 0.00 0.00 87 1032.9
20260503173505 52 115 1.0 3.0 0.00 0.00 0.00 87 1032.7
20260503173004 52 16 2.0 3.0 0.00 0.00 0.00 87 1032.7
20260503172505 52 61 3.0 5.0 0.00 0.00 0.00 87 1032.5
20260503171505 52 59 3.0 3.0 0.00 0.00 0.00 86 1032.7
20260503171004 52 35 3.0 5.0 0.00 0.00 0.00 86 1032.6
20260503170506 52 90 3.0 5.0 0.00 0.00 0.00 86 1032.7
20260503151007 53 179 3.0 7.0 0.00 0.00 0.00 86 1032.9
20260503150506 53 160 3.0 5.0 0.00 0.00 0.00 86 1033.1
20260503130506 53 49 1.0 3.0 0.00 0.00 0.00 86 1033.8
20260503090506 55 326 2.0 3.0 0.00 0.00 0.00 79 1033.0
20260503080506 55 334 1.0 2.0 0.00 0.00 0.00 78 1032.7
20260503072506 56 331 2.0 3.0 0.00 0.00 0.00 77 1032.6
20260503071006 56 358 2.0 2.0 0.00 0.00 0.00 77 1032.5
20260503054507 58 208 2.0 8.0 0.00 0.00 0.00 73 1032.1
20260503053008 59 208 5.0 8.0 0.00 0.00 0.00 72 1031.8
20260503052005 60 204 6.0 9.0 0.00 0.00 0.00 71 1032.0
20260503045005 61 212 7.0 14.0 0.00 0.00 0.00 69 1031.9
20260503044507 61 215 7.0 13.0 0.00 0.00 0.00 69 1031.9
20260503043005 62 210 8.0 13.0 0.00 0.00 0.00 67 1031.8
20260503042508 62 203 8.0 12.0 0.00 0.00 0.00 67 1031.8
20260503040007 63 207 5.0 12.0 0.00 0.00 0.00 66 1031.9
20260503035505 64 203 5.0 13.0 0.00 0.00 0.00 65 1032.0
20260503033505 64 221 8.0 12.0 0.00 0.00 0.00 63 1031.8
20260503032006 65 217 6.0 10.0 0.00 0.00 0.00 63 1031.9
20260503031006 65 213 6.0 13.0 0.00 0.00 0.00 62 1031.8
20260503025006 66 235 5.0 9.0 0.00 0.00 0.00 62 1031.8
20260503023506 66 205 6.0 10.0 0.00 0.00 0.00 61 1031.8
20260503023007 67 211 6.0 8.0 0.00 0.00 0.00 59 1032.0
20260503022006 67 273 4.0 5.0 0.00 0.00 0.00 62 1031.9
20260503021507 66 212 3.0 6.0 0.00 0.00 0.00 59 1032.0
20260503021005 67 187 2.0 6.0 0.00 0.00 0.00 58 1032.1
20260503020505 67 323 1.0 2.0 0.00 0.00 0.00 59 1032.2
20260503015507 66 226 1.0 3.0 0.00 0.00 0.00 58 1032.2
20260503015006 66 34 3.0 5.0 0.00 0.00 0.00 60 1032.1
20260503014006 65 44 3.0 7.0 0.00 0.00 0.00 58 1032.3
20260503013507 66 60 3.0 7.0 0.00 0.00 0.00 59 1032.4
20260503013006 66 63 4.0 6.0 0.00 0.00 0.00 58 1032.4
20260503012506 65 45 4.0 10.0 0.00 0.00 0.00 60 1032.4
20260503012007 65 39 5.0 10.0 0.00 0.00 0.00 60 1032.5
20260503011506 65 86 3.0 7.0 0.00 0.00 0.00 60 1032.8
20260503010506 65 82 2.0 6.0 0.00 0.00 0.00 58 1032.7
20260503005505 65 34 6.0 10.0 0.00 0.00 0.00 61 1032.6
20260503004504 64 85 2.0 5.0 0.00 0.00 0.00 61 1032.9
20260503003006 65 85 4.0 8.0 0.00 0.00 0.00 59 1033.2
20260503001507 65 62 5.0 9.0 0.00 0.00 0.00 61 1033.4
20260503001007 65 47 3.0 9.0 0.00 0.00 0.00 59 1033.6
20260503000506 65 54 5.0 7.0 0.00 0.00 0.00 62 1033.5
20260503000006 64 6 2.0 9.0 0.00 0.00 0.00 58 1033.7
20260502235505 65 102 3.0 9.0 0.00 0.00 0.00 61 1033.5
20260502235007 65 18 3.0 8.0 0.00 0.00 0.00 62 1033.8
20260502234505 64 92 3.0 8.0 0.00 0.00 0.00 60 1033.9
20260502233506 64 87 5.0 8.0 0.00 0.00 0.00 61 1034.1
20260502232504 63 54 6.0 8.0 0.00 0.00 0.00 60 1034.1
20260502232006 64 94 4.0 7.0 0.00 0.00 0.00 63 1034.4
20260502225005 63 21 4.0 6.0 0.00 0.00 0.00 68 1034.3
20260502224506 62 8 2.0 6.0 0.00 0.00 0.00 67 1034.2
20260502223005 62 95 3.0 6.0 0.00 0.00 0.00 70 1034.1
20260502222006 61 68 4.0 6.0 0.00 0.00 0.00 71 1034.1
20260502221006 60 115 2.0 5.0 0.00 0.00 0.00 74 1034.2
20260502220504 60 101 2.0 5.0 0.00 0.00 0.00 75 1034.0
20260502220007 60 132 2.0 5.0 0.00 0.00 0.00 75 1034.1
20260502215004 59 95 2.0 5.0 0.00 0.00 0.00 78 1034.2
20260502214006 58 67 2.0 3.0 0.00 0.00 0.00 79 1034.2
20260502212504 57 82 3.0 5.0 0.00 0.00 0.00 80 1034.2
20260502210005 56 80 1.0 2.0 0.00 0.00 0.00 85 1034.1
20260502205506 55 113 2.0 3.0 0.00 0.00 0.00 85 1034.1
20260502205004 54 119 2.0 5.0 0.00 0.00 0.00 85 1034.2
20260502204505 54 136 4.0 6.0 0.00 0.00 0.00 85 1033.9
20260502204005 54 135 2.0 5.0 0.00 0.00 0.00 86 1034.1